User: anonymous   Login
Location: Waldport
(44.4270°N, 124.0680°W)
Time: 19:00:22
(UTC-07:00)
Language:

Cosmos 1570 Rocket - Orbit

View from above orbital plane
View from above orbital plane
View from above satellite
View from above satellite

Ground track
Ground track

The orbit data is extracted from the following two-line orbital elements,

1 15032U 84056B   16267.99565074  .00000031  00000-0  20214-4 0  9998
2 15032  74.0719 202.8082 0016208  71.1795 289.1113 14.34669308688742
Epoch (UTC): 23 September 2016 23:53:44
Eccentricity: 0.0016208
inclination: 74.0719°
perigee height: 764 km
apogee height: 788 km
right ascension of ascending node: 202.8082°
argument of perigee: 71.1795°
revolutions per day: 14.34669308
mean anomaly at epoch: 289.1113°
orbit number at epoch: 68874

The dashed part of the orbit path shows where the satellite is in the earth's shadow,  

DLR